Location: �clusier
(49.9361°N, 2.7869°E)
Time: 08:22:52
(UTC+00:00)

Cosmos 2233 Rocket - Pass Details

Date: 16 June 2021
Orbit: 954 x 990 km, 82.9° (Epoch: 02 August)

Event Time Altitude Azimuth Distance (km) Brightness Sun altitude
Rises 21:39:38 0° 352° (N) 3,645 8.4 -11.2°
Reaches altitude 10° 21:42:12 10° 357° (N) 2,696 7.4 -11.4°
Maximum altitude 21:48:15 57° 76° (ENE) 1,125 4.3 -11.9°
Enters shadow 21:53:06 16° 151° (SSE) 2,263 5.2 -12.3°
